カタログに戻る

STARLINK-37555

運用中通信SSO
NORAD 69431·PAYLOAD·🇺🇸 United States

打ち上げ Jun 7, 2026 から Vandenberg Space Force Base

Loading…

次のパス (今後24時間)

TLE

最新Source: CelesTrak SupGP

元期: Sep 15, 2026, 03:25 UTC

1 69431C 26126M   26258.14284722 -.00007690  00000+0 -23865-3 0  2581
2 69431  97.2845 119.4772 0001998  91.6782 317.6521 15.33449293    10

AllMySatでSTARLINK-37555をリアルタイム追跡

Download on the App Store